User: anonymous   Login
Location: Stendal
(52.5994°N, 11.8400°E)
Time: 02:09:07
(UTC+01:00)
Language:

Tiangong - Orbit

View from above orbital plane
View from above orbital plane
View from above satellite
View from above satellite

Ground track
Ground track

The orbit data is extracted from the following two-line orbital elements,

1 48274U 21035A   22334.34079041  .00022687  00000-0  28227-3 0  9997
2 48274  41.4767 287.1082 0005690 339.5685 151.7234 15.59396524 90745
Epoch (UTC): 30 November 2022 08:10:44
Eccentricity: 0.0005690
inclination: 41.4767°
perigee height: 385 km
apogee height: 393 km
right ascension of ascending node: 287.1082°
argument of perigee: 339.5685°
revolutions per day: 15.59396524
mean anomaly at epoch: 151.7234°
orbit number at epoch: 9074

The dashed part of the orbit path shows where the satellite is in the earth's shadow,  

DLR